Showing default

KORSAT-2, 62377

Orbit data source: Space-Track

KORSAT-2, 62377 is a payload satellite owned by DAPA (KR) in LEO that was launched on Sat, 21 Dec 2024 UTC via an FALCON 9 launch vehicle from the Air Force Western Test Range (AFWTR). Payload-class satellites include a variety of spacecraft equipped with specific instruments for various scientific and technological missions. These include communications satellites like Starlink; space stations such as the ISS; scientific satellites like the Hubble; Earth observation satellites from companies like Planet Labs, Umbra, and HawkEye 360; GPS; miniature CubeSats for education and research; and military/defense satellites.

Loading next visibility...
Identifier
62377, 2024-247A
Orbit
LEO
Last TLE update
1 day ago
Origin
Manufacturer
KAI
Mission
Operational Defense Radar Imaging
Bus & Motor
CAS500?, Unknown motor
Mass
~800 kg wet, ~750 kg dry
Launch date (UTC)
2024-12-21 (5 months ago)
Launch vehicle
FALCON 9
Launch site
Air Force Western Test Range (AFWTR)
Object type
Payload
Rocket body
Debris
Shape & HBR
Hex Box + 3 Pan, 6 m
Radar Cross Section
10.467 m², Large (>1 m²)

Expand to show TLE details & history

TLE from 1 day ago
0 KORSAT-2
1 62377U 24247A   25128.13784679  .00005088  00000-0  43460-3 0  9998
2 62377  45.4115   7.6881 0006744 239.5653 120.4560 14.98770254 20794
Epoch: 2025-05-08T03:18Z
Definitive object data (Epoch: 2025-05-08T03:18:29.962Z)
Latitude
0.00003°
Longitude
91.85064°
Altitude
573.116 km
Speed
7.575 km/s
True Right ascension
00h 30m 45s
True Declination
0° 00' 00"
Sunlit
Object was in daylight at TLE epoch
Visualization TLE readout
Latitude
-13.03041°
Longitude
71.14934°
Altitude
573.632 km
Speed
7.575 km/s
Apparent Right ascension
00h 27m 17s
Apparent Declination
-70° 01' 30"
Sunlit
Object is in daylight
Visualization observer readout
Local Sidereal Time
22:35:21
Azimuth
170.057° S
Elevation
-21.82°
Doppler factor
1
Orbital elements
Apogee altitude
576.903 km
Perigee altitude
567.528 km
Semi-major axis
6,950.353 km
Eccentricity
0.0006744
Inclination
45.4115°
RAAN
7.6881°
Arg. of periapsis
239.5653°
True anomaly
120.52259°
Mean anomaly
120.456°
Eccentric anomaly
120.4893°
Mean motion
3.7457 °/min
BSTAR
0.0004346
Orbital period
96.11 mins
Loading maneuver chart data...
Loading SW <> Apogee altitude chart data...
Loading historical data...
Loading historical data...
Loading historical data...
Loading historical data...
Loading historical data...
Loading historical data...
Loading historical data...

KORSAT-2 Visibility forecast

Observer location: undefined°, undefined°

Span
Click to sort rows by Start time (UTC) header in descending order
Start Az.
Max El. time (UTC)
Max El. Az.
Max El.
End time (UTC)
End Az.
6 mins2025-05-09 17:52:12.654Z189.714° SSW2025-05-09 17:55:12.654Z139.377° SSE21.874°2025-05-09 17:58:12.654Z90.292° ESE
6 mins2025-05-09 19:33:12.654Z250.703° W2025-05-09 19:35:12.654Z274.265° WNW43.643°2025-05-09 19:39:12.654Z64.03° ENE
6 mins2025-05-09 21:14:12.654Z295.883° NW2025-05-09 21:16:12.654Z338.237° N31.987°2025-05-09 21:20:12.654Z63.039° ENE
6 mins2025-05-09 22:55:12.654Z305.242° NW2025-05-09 22:58:12.654Z29.643° NE37.101°2025-05-09 23:01:12.654Z86.995° E
6 mins2025-05-10 00:36:12.654Z279.989° WNW2025-05-10 00:38:12.654Z238.482° WSW37.148°2025-05-10 00:42:12.654Z137.656° SSE
|